Simultaneous Nadir Overpasses (SNOs) Predictions

Prediction of SNOs between TERRA and METOP-C Satellite Orbit:

Table of predicted SNOs for the next 14.0 days since TLE Epoch: 3/23/2024
Index Date (TERRA) Time (TERRA) Lat,Lon (TERRA) SZA (TERRA ) Date (METOP-C) Time (METOP-C) Lat,Lon (METOP-C) SZA (METOP-C ) Distance(km) Time Diff (sec)
1 03/25/2024 10:23:50 -79.40,-139.19 102.37 03/25/2024 10:23:10 -79.41,-139.04 102.36 3.21 40
2 03/25/2024 11:13:07 79.56, 29.51 77.82 03/25/2024 11:13:45 79.56, 29.56 77.84 1.13 38
3 03/28/2024 01:44:21 79.36, 170.41 76.56 03/28/2024 01:44:07 79.36, 170.34 76.55 1.52 14
4 03/28/2024 02:33:37 -79.59, -20.44 103.16 03/28/2024 02:34:42 -79.59, -20.50 103.15 1.17 65
5 03/30/2024 16:15:33 79.20, -48.40 75.35 03/30/2024 16:14:27 79.20, -48.39 75.34 0.40 66
6 03/30/2024 17:04:48 -79.47, 120.95 104.32 03/30/2024 17:05:01 -79.47, 120.98 104.32 0.68 13
7 04/02/2024 07:36:00 -79.27, -98.13 105.57 04/02/2024 07:35:22 -79.27, -98.12 105.58 0.35 38
8 04/02/2024 08:25:16 79.47, 70.81 74.68 04/02/2024 08:25:56 79.47, 70.75 74.68 1.38 40
9 04/04/2024 22:56:25 79.35,-147.77 73.54 04/04/2024 22:56:14 79.37,-147.64 73.56 2.98 11



Historial Predications of SNOs between TERRA and METOP-C
